Content
SEND FEEDBACK

Daily
Averages
Monthly
Summary
United States of America

RAPID CITY, SOUTH DAKOTA


Home > North America > United States > South Dakota
Elevation: 963 meters     Latitude: 44 03N     Longitude: 103 04W

WEATHER
 
SELECT A DAY
Number of Records: 200,504;   Date Range: 1/1/95 - 9/16/14
 
SHARE

PRINT THIS DATA

[ ← Previous Day ]
WEATHER ALMANAC - 10 JANUARY, 2013
[ Next Day → ]
[ °F ]   °C
Weather ElementAverageHighLow
Temperature3.9 °C10 °C (2:52 pm)0 °C (11:52 pm)
Dewpoint-6.2 °C-2.8 °C (11:52 pm)-8.3 °C (4:52 pm)
Humidity50 %82 % (11:52 pm)28 % (2:52 pm)
Barometer1002 hPa1009.5 hPa (1:52 am)998 hPa (2:52 pm)
Wind Speed22.9 km/h42.6 km/h (8:52 am)
Wind Gust55.5 km/h (8:52 am)
Weather ElementAverage
Visibility16.1 km
Wind DirectionSSW (188.2 °)

Weather ElementTotal
Precipitation---
Heating Degree Days13.3 (Base 18.3)
Averaged from 22 records on 10 January, 2013
WEATHER CONDITIONS BREAKOUT
WIND DIRECTION BREAKOUT
WEATHER BY HOUR - 10 JANUARY, 2013
[ °F ]   °C
Local TimeTemperatureDewpointHumidityBarometerVisibilityWind DirectionWind SpeedGust SpeedPrecipitationEventsConditions
1:52 AM1.7 °C-5 °C61 %1009.5 hPa16.1 kmSouth (170°)25.9 km/hClear
2:52 AM1.7 °C-5 °C61 %1009.1 hPa16.1 kmSouth (180°)27.8 km/hClear
3:52 AM2.2 °C-5.6 °C57 %1008.1 hPa16.1 kmSouth (170°)29.6 km/h38.9 km/hClear
4:52 AM2 °C-6 °C56 %1006.1 hPa16.1 kmSE (140°)16.7 km/h35.2 km/hClear
5:52 AM1.1 °C-6.1 °C59 %1007.1 hPa16.1 kmSouth (170°)14.8 km/hClear
6:52 AM1 °C-6 °C60 %1004.4 hPa16.1 kmSE (140°)16.7 km/hClear
7:52 AM2.8 °C-6.1 °C52 %1005.8 hPa16.1 kmSouth (170°)25.9 km/h38.9 km/hClear
8:52 AM4.4 °C-6.1 °C47 %1004.7 hPa16.1 kmSouth (190°)42.6 km/h55.5 km/hClear
9:52 AM5.6 °C-6.1 °C43 %1004.1 hPa16.1 kmSouth (180°)29.6 km/h40.7 km/hClear
10:52 AM6 °C-7 °C39 %1001.7 hPa16.1 kmSE (140°)29.6 km/h50.1 km/hClear
12:52 PM8 °C-7 °C34 %998.6 hPa16.1 kmSouth (190°)24.1 km/hClear
1:52 PM8.3 °C-6.7 °C34 %999.3 hPa16.1 kmSSW (200°)29.6 km/h46.3 km/hClear
2:52 PM10 °C-7.8 °C28 %998 hPa16.1 kmSSW (200°)29.6 km/h38.9 km/hClear
3:52 PM8.9 °C-7.8 °C30 %998.3 hPa16.1 kmSSW (200°)25.9 km/hClear
4:52 PM6.7 °C-8.3 °C34 %998.6 hPa16.1 kmSSW (200°)14.8 km/hClear
5:52 PM3.9 °C-7.8 °C43 %998.6 hPa16.1 kmNE (40°)9.3 km/hClear
6:52 PM3.3 °C-7.2 °C47 %998.3 hPa16.1 kmNE (40°)13 km/hClear
7:52 PM2.2 °C-7.2 °C50 %998.6 hPa16.1 kmCalmClear
8:52 PM3.3 °C-7.2 °C47 %998 hPa16.1 kmNorth (350°)16.7 km/hClear
9:52 PM1.7 °C-4.4 °C64 %998.6 hPa16.1 kmNorth (360°)14.8 km/hClear
10:52 PM1.1 °C-3.3 °C73 %998.6 hPa16.1 kmNorth (350°)31.5 km/h40.7 km/hClear
11:52 PM0 °C-2.8 °C82 %999.3 hPa16.1 kmNorth (360°)33.3 km/h46.3 km/hClear
Hourly data recorded from KRAP, located 0 kilometers away from Rapid City, South Dakota







STORIES FROM OUR PARTNERS